contact:dominique.lefevre@mio.osupytheas.fr, maurice.libes@osupytheas.fr, didier.mallarino@osupytheas.fr
Project:EMSO http://www.emso-fr.org/EMSO-France
Depth: 2436.0 m
Title:EMSO Ligure Ouest : Data MII capteur CSTAR
DateTime,Latitude,Longitude,Instrument_Serial,Reference_Counts,Signal_Counts,Corrected_Signal_raw_counts,Calculated_Beam_c_inverse_meters,Internal_thermistor_counts
DateTime,Latitude,Longitude,Instrument_Serial,Reference_Counts,Signal_Counts,Corrected_Signal_raw_counts,Calculated_Beam_c_inverse_meters,Internal_thermistor_counts
2019-07-13T00:01:16,42.805,6.029,CST-1368DR,8682,12141,15469,0.038,551
2019-07-13T00:04:17,42.805,6.029,CST-1368DR,8682,12142,15470,0.038,551
2019-07-13T00:07:19,42.805,6.029,CST-1368DR,8681,12141,15471,0.037,551
2019-07-13T00:10:20,42.805,6.029,CST-1368DR,8682,12143,15472,0.037,550
2019-07-13T00:13:22,42.805,6.029,CST-1368DR,8682,12140,15467,0.038,551
2019-07-13T00:16:24,42.805,6.029,CST-1368DR,8681,12138,15466,0.039,551
2019-07-13T00:19:26,42.805,6.029,CST-1368DR,8681,12141,15470,0.038,550
2019-07-13T00:22:27,42.805,6.029,CST-1368DR,8681,12142,15471,0.037,551
2019-07-13T00:25:29,42.805,6.029,CST-1368DR,8681,12142,15472,0.037,551
2019-07-13T00:28:30,42.805,6.029,CST-1368DR,8681,12139,15467,0.038,551
2019-07-13T00:31:32,42.805,6.029,CST-1368DR,8681,12140,15470,0.038,551
2019-07-13T00:34:34,42.805,6.029,CST-1368DR,8681,12140,15469,0.038,551
2019-07-13T00:37:35,42.805,6.029,CST-1368DR,8681,12140,15470,0.038,551
2019-07-13T00:40:37,42.805,6.029,CST-1368DR,8681,12138,15466,0.039,551
2019-07-13T00:43:39,42.805,6.029,CST-1368DR,8681,12141,15470,0.038,551
2019-07-13T00:46:41,42.805,6.029,CST-1368DR,8681,12142,15472,0.037,550
2019-07-13T00:49:43,42.805,6.029,CST-1368DR,8681,12143,15474,0.037,551
2019-07-13T00:52:45,42.805,6.029,CST-1368DR,8681,12141,15471,0.037,551
2019-07-13T00:55:46,42.805,6.029,CST-1368DR,8681,12138,15466,0.039,550
2019-07-13T00:58:48,42.805,6.029,CST-1368DR,8681,12140,15470,0.038,551
2019-07-13T01:01:50,42.805,6.029,CST-1368DR,8681,12139,15468,0.038,551
2019-07-13T01:04:51,42.805,6.029,CST-1368DR,8681,12141,15470,0.038,551
2019-07-13T01:07:53,42.805,6.029,CST-1368DR,8681,12142,15472,0.037,551
2019-07-13T01:10:54,42.805,6.029,CST-1368DR,8681,12141,15470,0.038,551
2019-07-13T01:13:56,42.805,6.029,CST-1368DR,8681,12138,15467,0.038,551
2019-07-13T01:16:58,42.805,6.029,CST-1368DR,8681,12141,15470,0.038,551
2019-07-13T01:19:59,42.805,6.029,CST-1368DR,8681,12141,15471,0.037,551
2019-07-13T01:23:01,42.805,6.029,CST-1368DR,8681,12139,15468,0.038,551
2019-07-13T01:26:03,42.805,6.029,CST-1368DR,8681,12138,15467,0.038,551
2019-07-13T01:29:04,42.805,6.029,CST-1368DR,8681,12140,15470,0.038,550
2019-07-13T01:32:06,42.805,6.029,CST-1368DR,8681,12140,15469,0.038,551
2019-07-13T01:35:07,42.805,6.029,CST-1368DR,8681,12139,15468,0.038,551
2019-07-13T01:38:09,42.805,6.029,CST-1368DR,8681,12139,15468,0.038,551
2019-07-13T01:41:11,42.805,6.029,CST-1368DR,8681,12137,15466,0.039,551
2019-07-13T01:44:13,42.805,6.029,CST-1368DR,8681,12130,15456,0.041,551
2019-07-13T01:47:14,42.805,6.029,CST-1368DR,8681,12140,15469,0.038,550
2019-07-13T01:50:16,42.805,6.029,CST-1368DR,8681,12137,15465,0.039,550
2019-07-13T01:53:18,42.805,6.029,CST-1368DR,8681,12139,15468,0.038,550
2019-07-13T01:56:20,42.805,6.029,CST-1368DR,8681,12140,15470,0.038,551
2019-07-13T01:59:22,42.805,6.029,CST-1368DR,8681,12140,15469,0.038,550
2019-07-13T02:02:23,42.805,6.029,CST-1368DR,8681,12138,15467,0.038,551
2019-07-13T02:05:25,42.805,6.029,CST-1368DR,8681,12142,15471,0.037,551
2019-07-13T02:08:27,42.805,6.029,CST-1368DR,8681,12141,15470,0.038,551
2019-07-13T02:11:29,42.805,6.029,CST-1368DR,8680,12140,15471,0.037,551
2019-07-13T02:14:31,42.805,6.029,CST-1368DR,8680,12140,15471,0.037,551
2019-07-13T02:17:32,42.805,6.029,CST-1368DR,8680,12141,15472,0.037,551
2019-07-13T02:20:34,42.805,6.029,CST-1368DR,8680,12140,15471,0.037,551
2019-07-13T02:23:36,42.805,6.029,CST-1368DR,8680,12138,15468,0.038,551
2019-07-13T02:26:38,42.805,6.029,CST-1368DR,8680,12140,15471,0.037,551
2019-07-13T02:29:39,42.805,6.029,CST-1368DR,8680,12140,15470,0.038,551
2019-07-13T02:32:41,42.805,6.029,CST-1368DR,8680,12139,15469,0.038,551
2019-07-13T02:35:43,42.805,6.029,CST-1368DR,8680,12139,15469,0.038,551
2019-07-13T02:38:45,42.805,6.029,CST-1368DR,8680,12140,15471,0.037,551
2019-07-13T02:41:47,42.805,6.029,CST-1368DR,8680,12140,15470,0.038,551
2019-07-13T02:44:48,42.805,6.029,CST-1368DR,8680,12138,15469,0.038,551
2019-07-13T02:47:50,42.805,6.029,CST-1368DR,8680,12136,15466,0.039,551
2019-07-13T02:50:52,42.805,6.029,CST-1368DR,8680,12140,15471,0.037,551
2019-07-13T02:53:54,42.805,6.029,CST-1368DR,8680,12138,15469,0.038,551
2019-07-13T02:56:55,42.805,6.029,CST-1368DR,8680,12140,15471,0.037,551
2019-07-13T02:59:57,42.805,6.029,CST-1368DR,8680,12140,15471,0.037,551
2019-07-13T03:02:59,42.805,6.029,CST-1368DR,8680,12139,15469,0.038,551
2019-07-13T03:06:01,42.805,6.029,CST-1368DR,8680,12138,15468,0.038,551
2019-07-13T03:09:03,42.805,6.029,CST-1368DR,8680,12139,15470,0.038,551
2019-07-13T03:12:05,42.805,6.029,CST-1368DR,8680,12137,15467,0.038,551
2019-07-13T03:15:07,42.805,6.029,CST-1368DR,8680,12141,15472,0.037,551
2019-07-13T03:18:08,42.805,6.029,CST-1368DR,8680,12140,15470,0.038,551
2019-07-13T03:21:10,42.805,6.029,CST-1368DR,8680,12141,15472,0.037,550
2019-07-13T03:24:12,42.805,6.029,CST-1368DR,8680,12138,15469,0.038,551
2019-07-13T03:27:14,42.805,6.029,CST-1368DR,8680,12140,15471,0.037,551
2019-07-13T03:30:16,42.805,6.029,CST-1368DR,8680,12141,15472,0.037,551
2019-07-13T03:33:17,42.805,6.029,CST-1368DR,8680,12138,15468,0.038,551
2019-07-13T03:36:19,42.805,6.029,CST-1368DR,8680,12139,15470,0.038,550
2019-07-13T03:39:21,42.805,6.029,CST-1368DR,8680,12139,15470,0.038,551
2019-07-13T03:42:23,42.805,6.029,CST-1368DR,8680,12139,15470,0.038,551
2019-07-13T03:45:25,42.805,6.029,CST-1368DR,8680,12140,15471,0.037,551
2019-07-13T03:48:27,42.805,6.029,CST-1368DR,8680,12134,15463,0.039,550
2019-07-13T03:51:28,42.805,6.029,CST-1368DR,8680,12141,15473,0.037,551
2019-07-13T03:54:30,42.805,6.029,CST-1368DR,8680,12140,15470,0.038,551
2019-07-13T03:57:32,42.805,6.029,CST-1368DR,8680,12139,15469,0.038,551
2019-07-13T04:00:34,42.805,6.029,CST-1368DR,8679,12135,15466,0.039,551
2019-07-13T04:03:36,42.805,6.029,CST-1368DR,8679,12135,15466,0.039,551
2019-07-13T04:06:38,42.805,6.029,CST-1368DR,8679,12137,15469,0.038,551
2019-07-13T04:09:40,42.805,6.029,CST-1368DR,8679,12141,15474,0.037,551
2019-07-13T04:12:41,42.805,6.029,CST-1368DR,8679,12139,15471,0.037,551
2019-07-13T04:15:43,42.805,6.029,CST-1368DR,8679,12139,15471,0.037,551
2019-07-13T04:18:45,42.805,6.029,CST-1368DR,8679,12140,15473,0.037,551
2019-07-13T04:21:47,42.805,6.029,CST-1368DR,8679,12139,15471,0.037,551
2019-07-13T04:24:49,42.805,6.029,CST-1368DR,8679,12138,15469,0.038,551
2019-07-13T04:27:51,42.805,6.029,CST-1368DR,8679,12140,15473,0.037,551
2019-07-13T04:30:53,42.805,6.029,CST-1368DR,8679,12138,15470,0.038,551
2019-07-13T04:33:54,42.805,6.029,CST-1368DR,8679,12136,15467,0.038,551
2019-07-13T04:36:56,42.805,6.029,CST-1368DR,8679,12138,15470,0.038,551
2019-07-13T04:39:58,42.805,6.029,CST-1368DR,8679,12140,15472,0.037,551
2019-07-13T04:43:00,42.805,6.029,CST-1368DR,8679,12140,15472,0.037,551
2019-07-13T04:46:02,42.805,6.029,CST-1368DR,8679,12139,15471,0.037,551
2019-07-13T04:49:03,42.805,6.029,CST-1368DR,8679,12139,15471,0.037,550
2019-07-13T04:52:05,42.805,6.029,CST-1368DR,8679,12139,15471,0.037,551
2019-07-13T04:55:07,42.805,6.029,CST-1368DR,8679,12140,15472,0.037,550
2019-07-13T04:58:09,42.805,6.029,CST-1368DR,8679,12131,15461,0.040,551
2019-07-13T05:01:11,42.805,6.029,CST-1368DR,8679,12138,15469,0.038,551
2019-07-13T05:04:13,42.805,6.029,CST-1368DR,8679,12138,15470,0.038,551
2019-07-13T05:07:15,42.805,6.029,CST-1368DR,8679,12135,15466,0.039,551
2019-07-13T05:10:16,42.805,6.029,CST-1368DR,8679,12140,15472,0.037,551
2019-07-13T05:13:18,42.805,6.029,CST-1368DR,8679,12138,15470,0.038,551
2019-07-13T05:16:20,42.805,6.029,CST-1368DR,8679,12139,15471,0.037,551
2019-07-13T05:19:22,42.805,6.029,CST-1368DR,8679,12139,15471,0.037,551
2019-07-13T05:22:24,42.805,6.029,CST-1368DR,8679,12138,15470,0.038,551
2019-07-13T05:25:26,42.805,6.029,CST-1368DR,8679,12138,15470,0.038,551
2019-07-13T05:28:27,42.805,6.029,CST-1368DR,8679,12139,15471,0.037,551
2019-07-13T05:31:29,42.805,6.029,CST-1368DR,8679,12138,15470,0.038,550
2019-07-13T05:34:31,42.805,6.029,CST-1368DR,8679,12137,15468,0.038,551
2019-07-13T05:37:33,42.805,6.029,CST-1368DR,8679,12137,15469,0.038,551
2019-07-13T05:40:35,42.805,6.029,CST-1368DR,8679,12139,15471,0.037,551
2019-07-13T05:43:36,42.805,6.029,CST-1368DR,8679,12138,15470,0.038,551
2019-07-13T05:46:39,42.805,6.029,CST-1368DR,8679,12137,15468,0.038,551
2019-07-13T05:49:41,42.805,6.029,CST-1368DR,8679,12137,15469,0.038,551
2019-07-13T05:52:43,42.805,6.029,CST-1368DR,8679,12139,15471,0.037,551
2019-07-13T05:55:45,42.805,6.029,CST-1368DR,8678,12136,15469,0.038,551
2019-07-13T05:58:46,42.805,6.029,CST-1368DR,8678,12135,15468,0.038,551
2019-07-13T06:01:48,42.805,6.029,CST-1368DR,8678,12136,15469,0.038,551
2019-07-13T06:04:50,42.805,6.029,CST-1368DR,8678,12137,15470,0.038,551
2019-07-13T06:07:52,42.805,6.029,CST-1368DR,8678,12137,15471,0.037,551
2019-07-13T06:10:54,42.805,6.029,CST-1368DR,8678,12137,15470,0.038,550
2019-07-13T06:13:56,42.805,6.029,CST-1368DR,8678,12136,15469,0.038,551
2019-07-13T06:16:57,42.805,6.029,CST-1368DR,8678,12138,15471,0.037,551
2019-07-13T06:19:59,42.805,6.029,CST-1368DR,8678,12137,15471,0.037,551
2019-07-13T06:23:01,42.805,6.029,CST-1368DR,8678,12137,15470,0.038,551
2019-07-13T06:26:03,42.805,6.029,CST-1368DR,8678,12136,15469,0.038,551
2019-07-13T06:29:05,42.805,6.029,CST-1368DR,8678,12137,15470,0.038,551
2019-07-13T06:32:07,42.805,6.029,CST-1368DR,8678,12138,15471,0.037,551
2019-07-13T06:35:09,42.805,6.029,CST-1368DR,8678,12138,15472,0.037,551
2019-07-13T06:38:11,42.805,6.029,CST-1368DR,8678,12137,15470,0.038,551
2019-07-13T06:41:12,42.805,6.029,CST-1368DR,8678,12136,15469,0.038,551
2019-07-13T06:44:14,42.805,6.029,CST-1368DR,8678,12133,15465,0.039,551
2019-07-13T06:47:16,42.805,6.029,CST-1368DR,8678,12135,15468,0.038,551
2019-07-13T06:50:18,42.805,6.029,CST-1368DR,8678,12134,15467,0.038,550
2019-07-13T06:53:20,42.805,6.029,CST-1368DR,8678,12134,15466,0.039,551
2019-07-13T06:56:22,42.805,6.029,CST-1368DR,8678,12137,15470,0.038,551
2019-07-13T06:59:23,42.805,6.029,CST-1368DR,8678,12135,15468,0.038,551
2019-07-13T07:02:25,42.805,6.029,CST-1368DR,8678,12136,15469,0.038,551
2019-07-13T07:05:27,42.805,6.029,CST-1368DR,8678,12136,15469,0.038,551
2019-07-13T07:08:29,42.805,6.029,CST-1368DR,8678,12137,15470,0.038,551
2019-07-13T07:11:31,42.805,6.029,CST-1368DR,8678,12137,15470,0.038,551
2019-07-13T07:14:33,42.805,6.029,CST-1368DR,8678,12136,15469,0.038,551
2019-07-13T07:17:35,42.805,6.029,CST-1368DR,8678,12137,15470,0.038,551
2019-07-13T07:20:36,42.805,6.029,CST-1368DR,8678,12137,15470,0.038,551
2019-07-13T07:23:38,42.805,6.029,CST-1368DR,8677,12130,15463,0.039,551
2019-07-13T07:26:40,42.805,6.029,CST-1368DR,8677,12135,15470,0.038,551
2019-07-13T07:29:42,42.805,6.029,CST-1368DR,8677,12136,15470,0.038,551
2019-07-13T07:32:44,42.805,6.029,CST-1368DR,8677,12135,15470,0.038,551
2019-07-13T07:35:46,42.805,6.029,CST-1368DR,8677,12135,15469,0.038,551
2019-07-13T07:38:47,42.805,6.029,CST-1368DR,8677,12137,15472,0.037,551
2019-07-13T07:41:49,42.805,6.029,CST-1368DR,8677,12134,15468,0.038,551
2019-07-13T07:44:51,42.805,6.029,CST-1368DR,8677,12136,15471,0.037,551
2019-07-13T07:47:53,42.805,6.029,CST-1368DR,8677,12135,15470,0.038,551
2019-07-13T07:50:54,42.805,6.029,CST-1368DR,8677,12136,15470,0.038,551
2019-07-13T07:53:56,42.805,6.029,CST-1368DR,8677,12135,15469,0.038,551
2019-07-13T07:56:58,42.805,6.029,CST-1368DR,8677,12136,15470,0.038,550
2019-07-13T08:00:00,42.805,6.029,CST-1368DR,8677,12136,15471,0.037,551
2019-07-13T08:03:01,42.805,6.029,CST-1368DR,8677,12135,15469,0.038,551
2019-07-13T08:06:03,42.805,6.029,CST-1368DR,8677,12134,15468,0.038,551
2019-07-13T08:09:05,42.805,6.029,CST-1368DR,8677,12137,15471,0.037,551
2019-07-13T08:12:07,42.805,6.029,CST-1368DR,8677,12133,15467,0.038,551
2019-07-13T08:15:09,42.805,6.029,CST-1368DR,8677,12135,15470,0.038,551
2019-07-13T08:18:10,42.805,6.029,CST-1368DR,8677,12134,15469,0.038,551
2019-07-13T08:21:12,42.805,6.029,CST-1368DR,8677,12135,15469,0.038,551
2019-07-13T08:24:14,42.805,6.029,CST-1368DR,8677,12137,15471,0.037,551
2019-07-13T08:27:16,42.805,6.029,CST-1368DR,8677,12132,15465,0.039,551
2019-07-13T08:30:18,42.805,6.029,CST-1368DR,8677,12134,15468,0.038,551
2019-07-13T08:33:20,42.805,6.029,CST-1368DR,8677,12135,15469,0.038,551
2019-07-13T08:36:21,42.805,6.029,CST-1368DR,8677,12136,15471,0.037,551
2019-07-13T08:39:23,42.805,6.029,CST-1368DR,8677,12133,15467,0.038,551
2019-07-13T08:42:25,42.805,6.029,CST-1368DR,8677,12135,15469,0.038,551
2019-07-13T08:45:27,42.805,6.029,CST-1368DR,8677,12135,15470,0.038,551
2019-07-13T08:48:29,42.805,6.029,CST-1368DR,8677,12134,15468,0.038,551
2019-07-13T08:51:30,42.805,6.029,CST-1368DR,8677,12136,15470,0.038,551
2019-07-13T08:54:32,42.805,6.029,CST-1368DR,8677,12135,15469,0.038,551
2019-07-13T08:57:34,42.805,6.029,CST-1368DR,8677,12135,15469,0.038,551
2019-07-13T09:00:36,42.805,6.029,CST-1368DR,8677,12135,15469,0.038,551
2019-07-13T09:03:38,42.805,6.029,CST-1368DR,8677,12137,15472,0.037,551
2019-07-13T09:06:39,42.805,6.029,CST-1368DR,8677,12138,15473,0.037,551
2019-07-13T09:09:41,42.805,6.029,CST-1368DR,8677,12137,15472,0.037,551
2019-07-13T09:12:43,42.805,6.029,CST-1368DR,8677,12133,15467,0.038,551
2019-07-13T09:15:45,42.805,6.029,CST-1368DR,8677,12136,15471,0.037,551
2019-07-13T09:18:46,42.805,6.029,CST-1368DR,8677,12138,15473,0.037,550
2019-07-13T09:21:48,42.805,6.029,CST-1368DR,8676,12137,15474,0.037,551
2019-07-13T09:24:50,42.805,6.029,CST-1368DR,8676,12133,15468,0.038,551
2019-07-13T09:27:52,42.805,6.029,CST-1368DR,8676,12126,15460,0.040,551
2019-07-13T09:30:54,42.805,6.029,CST-1368DR,8677,12136,15470,0.038,551
2019-07-13T09:33:55,42.805,6.029,CST-1368DR,8676,12137,15473,0.037,551
2019-07-13T09:36:57,42.805,6.029,CST-1368DR,8676,12135,15472,0.037,551
2019-07-13T09:39:59,42.805,6.029,CST-1368DR,8676,12138,15474,0.037,551
2019-07-13T09:43:00,42.805,6.029,CST-1368DR,8676,12136,15473,0.037,551
2019-07-13T09:46:02,42.805,6.029,CST-1368DR,8676,12137,15474,0.037,551
2019-07-13T09:49:04,42.805,6.029,CST-1368DR,8676,12137,15473,0.037,550
2019-07-13T09:52:05,42.805,6.029,CST-1368DR,8676,12130,15464,0.039,551
2019-07-13T09:55:07,42.805,6.029,CST-1368DR,8676,12134,15469,0.038,551
2019-07-13T09:58:09,42.805,6.029,CST-1368DR,8676,12136,15472,0.037,551
2019-07-13T10:01:10,42.805,6.029,CST-1368DR,8676,12135,15471,0.037,551
2019-07-13T10:04:12,42.805,6.029,CST-1368DR,8676,12136,15472,0.037,551
2019-07-13T10:07:13,42.805,6.029,CST-1368DR,8676,12137,15473,0.037,551
2019-07-13T10:10:15,42.805,6.029,CST-1368DR,8676,12133,15468,0.038,551
2019-07-13T10:13:17,42.805,6.029,CST-1368DR,8676,12135,15472,0.037,551
2019-07-13T10:16:18,42.805,6.029,CST-1368DR,8676,12137,15474,0.037,551
2019-07-13T10:19:20,42.805,6.029,CST-1368DR,8676,12135,15471,0.037,551
2019-07-13T10:22:22,42.805,6.029,CST-1368DR,8676,12132,15467,0.038,551
2019-07-13T10:25:23,42.805,6.029,CST-1368DR,8676,12137,15473,0.037,551
2019-07-13T10:28:25,42.805,6.029,CST-1368DR,8676,12137,15473,0.037,551
2019-07-13T10:31:27,42.805,6.029,CST-1368DR,8676,12137,15473,0.037,551
2019-07-13T10:34:28,42.805,6.029,CST-1368DR,8676,12138,15474,0.037,551
2019-07-13T10:37:30,42.805,6.029,CST-1368DR,8676,12126,15460,0.040,551
2019-07-13T10:40:31,42.805,6.029,CST-1368DR,8675,12091,15417,0.051,551
2019-07-13T10:43:33,42.805,6.029,CST-1368DR,8676,12131,15466,0.039,551
2019-07-13T10:46:35,42.805,6.029,CST-1368DR,8676,12133,15469,0.038,551
2019-07-13T10:49:36,42.805,6.029,CST-1368DR,8676,12136,15472,0.037,551
2019-07-13T10:52:38,42.805,6.029,CST-1368DR,8675,12135,15473,0.037,551
2019-07-13T10:55:40,42.805,6.029,CST-1368DR,8675,12131,15467,0.038,551
2019-07-13T10:58:41,42.805,6.029,CST-1368DR,8676,12137,15473,0.037,551
2019-07-13T11:01:43,42.805,6.029,CST-1368DR,8675,12137,15476,0.036,551
2019-07-13T11:04:44,42.805,6.029,CST-1368DR,8675,12137,15476,0.036,551
2019-07-13T11:07:46,42.805,6.029,CST-1368DR,8675,12136,15474,0.037,551
2019-07-13T11:10:48,42.805,6.029,CST-1368DR,8675,12136,15474,0.037,551
2019-07-13T11:13:49,42.805,6.029,CST-1368DR,8675,12137,15475,0.036,551
2019-07-13T11:16:51,42.805,6.029,CST-1368DR,8675,12137,15475,0.036,551
2019-07-13T11:19:53,42.805,6.029,CST-1368DR,8675,12136,15474,0.037,551
2019-07-13T11:22:54,42.805,6.029,CST-1368DR,8675,12135,15473,0.037,551
2019-07-13T11:25:56,42.805,6.029,CST-1368DR,8675,12137,15475,0.036,551
2019-07-13T11:28:57,42.805,6.029,CST-1368DR,8675,12136,15474,0.037,550
2019-07-13T11:31:59,42.805,6.029,CST-1368DR,8675,12135,15473,0.037,551
2019-07-13T11:35:01,42.805,6.029,CST-1368DR,8675,12135,15472,0.037,551
2019-07-13T11:38:02,42.805,6.029,CST-1368DR,8675,12136,15473,0.037,551
2019-07-13T11:41:04,42.805,6.029,CST-1368DR,8675,12135,15472,0.037,551
2019-07-13T11:44:06,42.805,6.029,CST-1368DR,8675,12134,15472,0.037,551
2019-07-13T11:47:07,42.805,6.029,CST-1368DR,8675,12135,15473,0.037,551
2019-07-13T11:50:09,42.805,6.029,CST-1368DR,8675,12133,15470,0.038,551
2019-07-13T11:53:11,42.805,6.029,CST-1368DR,8675,12136,15474,0.037,551
2019-07-13T11:56:12,42.805,6.029,CST-1368DR,8675,12136,15473,0.037,551
2019-07-13T11:59:14,42.805,6.029,CST-1368DR,8675,12135,15472,0.037,551
2019-07-13T12:02:15,42.805,6.029,CST-1368DR,8675,12134,15472,0.037,551
2019-07-13T12:05:17,42.805,6.029,CST-1368DR,8675,12129,15465,0.039,551
2019-07-13T12:08:19,42.805,6.029,CST-1368DR,8675,12135,15473,0.037,551
2019-07-13T12:11:20,42.805,6.029,CST-1368DR,8675,12136,15474,0.037,551
2019-07-13T12:14:22,42.805,6.029,CST-1368DR,8675,12137,15475,0.036,551
2019-07-13T12:17:24,42.805,6.029,CST-1368DR,8675,12136,15473,0.037,551
2019-07-13T12:20:25,42.805,6.029,CST-1368DR,8675,12134,15472,0.037,551
2019-07-13T12:23:27,42.805,6.029,CST-1368DR,8675,12132,15469,0.038,551
2019-07-13T12:26:28,42.805,6.029,CST-1368DR,8675,12134,15472,0.037,551
2019-07-13T12:29:30,42.805,6.029,CST-1368DR,8675,12134,15472,0.037,551
2019-07-13T12:32:32,42.805,6.029,CST-1368DR,8675,12136,15474,0.037,551
2019-07-13T12:35:33,42.805,6.029,CST-1368DR,8675,12137,15475,0.036,551
2019-07-13T12:38:35,42.805,6.029,CST-1368DR,8675,12135,15472,0.037,551
2019-07-13T12:41:37,42.805,6.029,CST-1368DR,8675,12135,15473,0.037,551
2019-07-13T12:44:38,42.805,6.029,CST-1368DR,8675,12135,15473,0.037,551
2019-07-13T12:47:40,42.805,6.029,CST-1368DR,8675,12136,15474,0.037,551
2019-07-13T12:50:41,42.805,6.029,CST-1368DR,8674,12137,15476,0.036,551
2019-07-13T12:53:43,42.805,6.029,CST-1368DR,8674,12132,15471,0.037,551
2019-07-13T12:56:45,42.805,6.029,CST-1368DR,8674,12134,15473,0.037,551
2019-07-13T12:59:46,42.805,6.029,CST-1368DR,8674,12132,15470,0.038,551
2019-07-13T13:02:48,42.805,6.029,CST-1368DR,8674,12133,15472,0.037,551
2019-07-13T13:05:50,42.805,6.029,CST-1368DR,8674,12135,15474,0.037,551
2019-07-13T13:08:51,42.805,6.029,CST-1368DR,8674,12134,15474,0.037,551
2019-07-13T13:11:53,42.805,6.029,CST-1368DR,8674,12135,15475,0.036,551
2019-07-13T13:14:54,42.805,6.029,CST-1368DR,8674,12136,15475,0.036,551
2019-07-13T13:17:56,42.805,6.029,CST-1368DR,8672,11844,15106,0.133,551
2019-07-13T13:20:58,42.805,6.029,CST-1368DR,8674,12137,15476,0.036,551
2019-07-13T13:23:59,42.805,6.029,CST-1368DR,8674,12135,15475,0.036,551
2019-07-13T13:27:01,42.805,6.029,CST-1368DR,8674,12132,15471,0.037,551
2019-07-13T13:30:03,42.805,6.029,CST-1368DR,8674,12136,15476,0.036,551
2019-07-13T13:33:04,42.805,6.029,CST-1368DR,8674,12135,15474,0.037,551
2019-07-13T13:36:06,42.805,6.029,CST-1368DR,8674,12135,15474,0.037,551
2019-07-13T13:39:07,42.805,6.029,CST-1368DR,8674,12137,15476,0.036,551
2019-07-13T13:42:09,42.805,6.029,CST-1368DR,8674,12137,15477,0.036,551
2019-07-13T13:45:11,42.805,6.029,CST-1368DR,8674,12135,15475,0.036,551
2019-07-13T13:48:12,42.805,6.029,CST-1368DR,8674,12134,15473,0.037,551
2019-07-13T13:51:14,42.805,6.029,CST-1368DR,8674,12135,15475,0.036,550
2019-07-13T13:54:16,42.805,6.029,CST-1368DR,8674,12136,15475,0.036,551
2019-07-13T13:57:17,42.805,6.029,CST-1368DR,8674,12133,15472,0.037,551
2019-07-13T14:00:19,42.805,6.029,CST-1368DR,8674,12135,15475,0.036,551
2019-07-13T14:03:20,42.805,6.029,CST-1368DR,8674,12135,15475,0.036,551
2019-07-13T14:06:22,42.805,6.029,CST-1368DR,8674,12134,15473,0.037,551
2019-07-13T14:09:24,42.805,6.029,CST-1368DR,8674,12134,15474,0.037,551
2019-07-13T14:12:25,42.805,6.029,CST-1368DR,8674,12136,15476,0.036,551
2019-07-13T14:15:27,42.805,6.029,CST-1368DR,8674,12134,15473,0.037,551
2019-07-13T14:18:28,42.805,6.029,CST-1368DR,8674,12134,15474,0.037,551
2019-07-13T14:21:30,42.805,6.029,CST-1368DR,8674,12136,15475,0.036,551
2019-07-13T14:24:32,42.805,6.029,CST-1368DR,8674,12133,15472,0.037,551
2019-07-13T14:27:33,42.805,6.029,CST-1368DR,8674,12135,15474,0.037,551
2019-07-13T14:30:35,42.805,6.029,CST-1368DR,8674,12136,15476,0.036,550
2019-07-13T14:33:37,42.805,6.029,CST-1368DR,8674,12133,15472,0.037,551
2019-07-13T14:36:38,42.805,6.029,CST-1368DR,8674,12134,15473,0.037,551
2019-07-13T14:39:40,42.805,6.029,CST-1368DR,8674,12136,15475,0.036,551
2019-07-13T14:42:42,42.805,6.029,CST-1368DR,8674,12135,15474,0.037,550
2019-07-13T14:45:43,42.805,6.029,CST-1368DR,8674,12133,15472,0.037,551
2019-07-13T14:48:45,42.805,6.029,CST-1368DR,8674,12135,15475,0.036,551
2019-07-13T14:51:47,42.805,6.029,CST-1368DR,8673,12135,15476,0.036,550
2019-07-13T14:54:48,42.805,6.029,CST-1368DR,8673,12135,15476,0.036,551
2019-07-13T14:57:50,42.805,6.029,CST-1368DR,8673,12135,15476,0.036,551
2019-07-13T15:00:52,42.805,6.029,CST-1368DR,8673,12135,15476,0.036,550
2019-07-13T15:03:53,42.805,6.029,CST-1368DR,8673,12134,15475,0.036,551
2019-07-13T15:06:55,42.805,6.029,CST-1368DR,8673,12135,15475,0.036,551
2019-07-13T15:09:57,42.805,6.029,CST-1368DR,8673,12135,15476,0.036,551
2019-07-13T15:12:58,42.805,6.029,CST-1368DR,8673,12135,15476,0.036,551
2019-07-13T15:16:00,42.805,6.029,CST-1368DR,8673,12135,15475,0.036,551
2019-07-13T15:19:02,42.805,6.029,CST-1368DR,8673,12134,15475,0.036,551
2019-07-13T15:22:03,42.805,6.029,CST-1368DR,8673,12135,15476,0.036,551
2019-07-13T15:25:05,42.805,6.029,CST-1368DR,8673,12134,15474,0.037,551
2019-07-13T15:28:07,42.805,6.029,CST-1368DR,8673,12134,15475,0.036,551
2019-07-13T15:31:08,42.805,6.029,CST-1368DR,8673,12133,15474,0.037,551
2019-07-13T15:34:10,42.805,6.029,CST-1368DR,8673,12132,15472,0.037,551
2019-07-13T15:37:12,42.805,6.029,CST-1368DR,8673,12132,15472,0.037,551
2019-07-13T15:40:13,42.805,6.029,CST-1368DR,8673,12133,15474,0.037,551
2019-07-13T15:43:15,42.805,6.029,CST-1368DR,8673,12131,15471,0.037,551
2019-07-13T15:46:17,42.805,6.029,CST-1368DR,8673,12125,15464,0.039,551
2019-07-13T15:49:18,42.805,6.029,CST-1368DR,8673,12134,15475,0.036,551
2019-07-13T15:52:20,42.805,6.029,CST-1368DR,8673,12134,15475,0.036,551
2019-07-13T15:55:22,42.805,6.029,CST-1368DR,8673,12134,15475,0.036,551
2019-07-13T15:58:23,42.805,6.029,CST-1368DR,8673,12134,15474,0.037,551
2019-07-13T16:01:25,42.805,6.029,CST-1368DR,8673,12131,15470,0.038,551
2019-07-13T16:04:26,42.805,6.029,CST-1368DR,8673,12128,15467,0.038,551
2019-07-13T16:07:28,42.805,6.029,CST-1368DR,8673,12132,15472,0.037,551
2019-07-13T16:10:30,42.805,6.029,CST-1368DR,8673,12131,15471,0.037,551
2019-07-13T16:13:31,42.805,6.029,CST-1368DR,8673,12133,15474,0.037,551
2019-07-13T16:16:33,42.805,6.029,CST-1368DR,8673,12133,15474,0.037,551
2019-07-13T16:19:35,42.805,6.029,CST-1368DR,8673,12133,15474,0.037,551
2019-07-13T16:22:36,42.805,6.029,CST-1368DR,8673,12134,15475,0.036,551
2019-07-13T16:25:38,42.805,6.029,CST-1368DR,8673,12133,15474,0.037,551
2019-07-13T16:28:40,42.805,6.029,CST-1368DR,8673,12134,15474,0.037,551
2019-07-13T16:31:41,42.805,6.029,CST-1368DR,8672,12132,15474,0.037,551
2019-07-13T16:34:43,42.805,6.029,CST-1368DR,8673,12132,15472,0.037,551
2019-07-13T16:37:45,42.805,6.029,CST-1368DR,8672,12132,15474,0.037,551